Location: Poughquag
(41.6090°N, 73.6820°W)
Time: 07:05:26
(UTC-04:00)

CUBESAT XI-V - Pass Details

Date: 25 July 2025
Orbit: 644 x 662 km, 98.3° (Epoch: 11 May)

Event Time Altitude Azimuth Distance (km) Brightness Sun altitude
Exits shadow 01:49:15 - 102° (ESE) 2,837 ? -27.8°
Enters shadow 02:58:19 -56° 166° (SSE) 11,359 ? -23.1°
Maximum altitude 03:29:31 82° 77° (ENE) 673 ? -19.9°
